Time,TemperatureF,DewpointF,PressureIn,WindDirection,WindDirectionDegrees,WindSpeedMPH,WindSpeedGustMPH,Humidity,HourlyPrecipIn,Conditions,Clouds,dailyrainin,SolarRadiationWatts/m^2,SoftwareType,DateUTC
2013-09-02 00:22:00,70.0,37.0,-100.00,SE,143,9.0,16.0,30,0.00,,,0.00,0.000000,,2013-09-02 06:22:00,
2013-09-02 00:32:00,70.0,37.0,-100.00,SE,143,9.0,16.0,30,0.00,,,0.00,0.000000,,2013-09-02 06:32:00,
2013-09-02 00:43:00,70.0,37.0,-100.00,SE,143,9.0,16.0,30,0.00,,,0.00,0.000000,,2013-09-02 06:43:00,
2013-09-02 00:52:00,70.0,37.0,-100.00,SE,143,9.0,16.0,30,0.00,,,0.00,0.000000,,2013-09-02 06:52:00,
2013-09-02 01:21:00,64.0,35.0,-100.00,SSE,147,4.0,10.0,34,0.00,,,0.00,0.000000,,2013-09-02 07:21:00,
2013-09-02 01:33:00,64.0,35.0,-100.00,SSE,147,4.0,10.0,34,0.00,,,0.00,0.000000,,2013-09-02 07:33:00,
2013-09-02 01:42:00,64.0,35.0,-100.00,SSE,147,4.0,10.0,34,0.00,,,0.00,0.000000,,2013-09-02 07:42:00,
2013-09-02 01:52:00,64.0,35.0,-100.00,SSE,147,4.0,10.0,34,0.00,,,0.00,0.000000,,2013-09-02 07:52:00,
2013-09-02 02:22:00,67.0,40.0,-100.00,SE,138,8.0,10.0,37,0.00,,,0.00,0.000000,,2013-09-02 08:22:00,
2013-09-02 02:32:00,67.0,40.0,-100.00,SE,138,8.0,10.0,37,0.00,,,0.00,0.000000,,2013-09-02 08:32:00,
2013-09-02 02:42:00,67.0,40.0,-100.00,SE,138,8.0,10.0,37,0.00,,,0.00,0.000000,,2013-09-02 08:42:00,
2013-09-02 02:52:00,67.0,40.0,-100.00,SE,138,8.0,10.0,37,0.00,,,0.00,0.000000,,2013-09-02 08:52:00,
2013-09-02 03:22:00,65.0,36.0,-100.00,SSW,209,3.0,10.0,34,0.00,,,0.00,0.000000,,2013-09-02 09:22:00,
2013-09-02 03:34:00,65.0,36.0,-100.00,SSW,209,3.0,10.0,34,0.00,,,0.00,0.000000,,2013-09-02 09:34:00,
2013-09-02 03:43:00,65.0,36.0,-100.00,SSW,209,3.0,10.0,34,0.00,,,0.00,0.000000,,2013-09-02 09:43:00,
2013-09-02 03:53:00,65.0,36.0,-100.00,SSW,209,3.0,10.0,34,0.00,,,0.00,0.000000,,2013-09-02 09:53:00,
2013-09-02 04:22:00,64.0,39.0,-100.00,SE,137,3.0,6.0,39,0.00,,,0.00,0.000000,,2013-09-02 10:22:00,
2013-09-02 04:33:00,64.0,39.0,-100.00,SE,137,3.0,6.0,39,0.00,,,0.00,0.000000,,2013-09-02 10:33:00,
2013-09-02 04:42:00,64.0,39.0,-100.00,SE,137,3.0,6.0,39,0.00,,,0.00,0.000000,,2013-09-02 10:42:00,
2013-09-02 04:53:00,64.0,39.0,-100.00,SE,137,3.0,6.0,39,0.00,,,0.00,0.000000,,2013-09-02 10:53:00,
2013-09-02 05:22:00,60.0,38.0,-100.00,SE,142,5.0,7.0,44,0.00,,,0.00,0.000000,,2013-09-02 11:22:00,
2013-09-02 05:33:00,60.0,38.0,-100.00,SE,142,5.0,7.0,44,0.00,,,0.00,0.000000,,2013-09-02 11:33:00,
2013-09-02 05:42:00,60.0,38.0,-100.00,SE,142,5.0,7.0,44,0.00,,,0.00,0.000000,,2013-09-02 11:42:00,
2013-09-02 05:52:00,60.0,38.0,-100.00,SE,142,5.0,7.0,44,0.00,,,0.00,0.000000,,2013-09-02 11:52:00,
2013-09-02 06:21:00,57.0,41.0,-100.00,SE,141,6.0,9.0,54,0.00,,,0.00,0.000000,,2013-09-02 12:21:00,
2013-09-02 06:32:00,57.0,41.0,-100.00,SE,141,6.0,9.0,54,0.00,,,0.00,0.000000,,2013-09-02 12:32:00,
2013-09-02 06:43:00,57.0,41.0,-100.00,SE,141,6.0,9.0,54,0.00,,,0.00,0.000000,,2013-09-02 12:43:00,
2013-09-02 06:52:00,57.0,41.0,-100.00,SE,141,6.0,9.0,54,0.00,,,0.00,0.000000,,2013-09-02 12:52:00,
2013-09-02 07:22:00,60.0,39.0,-100.00,SE,134,3.0,11.0,46,0.00,,,0.00,7.000000,,2013-09-02 13:22:00,
2013-09-02 07:32:00,60.0,39.0,-100.00,SE,134,3.0,11.0,46,0.00,,,0.00,7.000000,,2013-09-02 13:32:00,
2013-09-02 07:42:00,60.0,39.0,-100.00,SE,134,3.0,11.0,46,0.00,,,0.00,7.000000,,2013-09-02 13:42:00,
2013-09-02 07:52:00,60.0,39.0,-100.00,SE,134,3.0,11.0,46,0.00,,,0.00,7.000000,,2013-09-02 13:52:00,
2013-09-02 08:22:00,59.0,42.0,-100.00,SE,134,6.0,7.0,54,0.00,,,0.00,104.000000,,2013-09-02 14:22:00,
2013-09-02 08:32:00,59.0,42.0,-100.00,SE,134,6.0,7.0,54,0.00,,,0.00,104.000000,,2013-09-02 14:32:00,
2013-09-02 08:43:00,59.0,42.0,-100.00,SE,134,6.0,7.0,54,0.00,,,0.00,104.000000,,2013-09-02 14:43:00,
2013-09-02 08:52:00,59.0,42.0,-100.00,SE,134,6.0,7.0,54,0.00,,,0.00,104.000000,,2013-09-02 14:52:00,
2013-09-02 09:23:00,68.0,45.0,-100.00,SSE,152,7.0,9.0,43,0.00,,,0.00,262.000000,,2013-09-02 15:23:00,
2013-09-02 09:34:00,68.0,45.0,-100.00,SSE,152,7.0,9.0,43,0.00,,,0.00,262.000000,,2013-09-02 15:34:00,
2013-09-02 09:44:00,68.0,45.0,-100.00,SSE,152,7.0,9.0,43,0.00,,,0.00,262.000000,,2013-09-02 15:44:00,
2013-09-02 09:54:00,68.0,45.0,-100.00,SSE,152,7.0,9.0,43,0.00,,,0.00,262.000000,,2013-09-02 15:54:00,
2013-09-02 10:42:00,76.0,48.0,-100.00,South,178,7.0,10.0,37,0.00,,,0.00,431.000000,,2013-09-02 16:42:00,
2013-09-02 10:53:00,76.0,48.0,-100.00,South,178,7.0,10.0,37,0.00,,,0.00,431.000000,,2013-09-02 16:53:00,
2013-09-02 11:44:00,85.0,47.0,-100.00,SW,228,4.0,9.0,27,0.00,,,0.00,573.000000,,2013-09-02 17:44:00,
2013-09-02 11:52:00,85.0,47.0,-100.00,SW,228,4.0,9.0,27,0.00,,,0.00,573.000000,,2013-09-02 17:52:00,
2013-09-02 12:42:00,91.0,46.0,-100.00,West,270,6.0,9.0,21,0.00,,,0.00,593.000000,,2013-09-02 18:42:00,
2013-09-02 12:52:00,91.0,46.0,-100.00,West,270,6.0,9.0,21,0.00,,,0.00,593.000000,,2013-09-02 18:52:00,
2013-09-02 13:42:00,97.0,48.0,-100.00,South,175,8.0,12.0,19,0.00,,,0.00,710.000000,,2013-09-02 19:42:00,
2013-09-02 13:52:00,97.0,48.0,-100.00,South,175,8.0,12.0,19,0.00,,,0.00,710.000000,,2013-09-02 19:52:00,
2013-09-02 14:22:00,98.0,44.0,-100.00,SSE,147,10.0,19.0,16,0.00,,,0.00,574.000000,,2013-09-02 20:22:00,
2013-09-02 14:32:00,98.0,44.0,-100.00,SSE,147,10.0,19.0,16,0.00,,,0.00,574.000000,,2013-09-02 20:32:00,
2013-09-02 14:42:00,98.0,44.0,-100.00,SSE,147,10.0,19.0,16,0.00,,,0.00,574.000000,,2013-09-02 20:42:00,
2013-09-02 14:52:00,98.0,44.0,-100.00,SSE,147,10.0,19.0,16,0.00,,,0.00,574.000000,,2013-09-02 20:52:00,
2013-09-02 15:23:00,95.0,45.0,-100.00,SSE,166,11.0,24.0,18,0.00,,,0.00,335.000000,,2013-09-02 21:23:00,
2013-09-02 15:34:00,95.0,45.0,-100.00,SSE,166,11.0,24.0,18,0.00,,,0.00,335.000000,,2013-09-02 21:34:00,
2013-09-02 15:44:00,95.0,45.0,-100.00,SSE,166,11.0,24.0,18,0.00,,,0.00,335.000000,,2013-09-02 21:44:00,
2013-09-02 15:54:00,95.0,45.0,-100.00,SSE,166,11.0,24.0,18,0.00,,,0.00,335.000000,,2013-09-02 21:54:00,
2013-09-02 16:23:00,95.0,45.0,-100.00,SSW,212,6.0,11.0,18,0.00,,,0.00,318.000000,,2013-09-02 22:23:00,
2013-09-02 16:33:00,95.0,45.0,-100.00,SSW,212,6.0,11.0,18,0.00,,,0.00,318.000000,,2013-09-02 22:33:00,
2013-09-02 16:43:00,95.0,45.0,-100.00,SSW,212,6.0,11.0,18,0.00,,,0.00,318.000000,,2013-09-02 22:43:00,
2013-09-02 16:54:00,95.0,45.0,-100.00,SSW,212,6.0,11.0,18,0.00,,,0.00,318.000000,,2013-09-02 22:54:00,
2013-09-02 17:22:00,92.0,45.0,-100.00,NNW,329,3.0,7.0,20,0.00,,,0.00,139.000000,,2013-09-02 23:22:00,
2013-09-02 17:34:00,92.0,45.0,-100.00,NNW,329,3.0,7.0,20,0.00,,,0.00,139.000000,,2013-09-02 23:34:00,
2013-09-02 17:42:00,92.0,45.0,-100.00,NNW,329,3.0,7.0,20,0.00,,,0.00,139.000000,,2013-09-02 23:42:00,
2013-09-02 17:52:00,92.0,45.0,-100.00,NNW,329,3.0,7.0,20,0.00,,,0.00,139.000000,,2013-09-02 23:52:00,
2013-09-02 18:21:00,90.0,43.0,-100.00,West,260,10.0,16.0,20,0.00,,,0.00,46.000000,,2013-09-03 00:21:00,
2013-09-02 18:32:00,90.0,43.0,-100.00,West,260,10.0,16.0,20,0.00,,,0.00,46.000000,,2013-09-03 00:32:00,
2013-09-02 18:42:00,90.0,43.0,-100.00,West,260,10.0,16.0,20,0.00,,,0.00,46.000000,,2013-09-03 00:42:00,
2013-09-02 18:52:00,90.0,43.0,-100.00,West,260,10.0,16.0,20,0.00,,,0.00,46.000000,,2013-09-03 00:52:00,
2013-09-02 19:21:00,90.0,39.0,-100.00,WSW,244,4.0,19.0,17,0.00,,,0.00,27.000000,,2013-09-03 01:21:00,
2013-09-02 19:32:00,90.0,39.0,-100.00,WSW,244,4.0,19.0,17,0.00,,,0.00,27.000000,,2013-09-03 01:32:00,
2013-09-02 19:42:00,90.0,39.0,-100.00,WSW,244,4.0,19.0,17,0.00,,,0.00,27.000000,,2013-09-03 01:42:00,
2013-09-02 19:52:00,90.0,39.0,-100.00,WSW,244,4.0,19.0,17,0.00,,,0.00,27.000000,,2013-09-03 01:52:00,
2013-09-02 20:21:00,87.0,44.0,-100.00,North,349,3.0,9.0,22,0.00,,,0.00,12.000000,,2013-09-03 02:21:00,
2013-09-02 20:33:00,87.0,44.0,-100.00,North,349,3.0,9.0,22,0.00,,,0.00,12.000000,,2013-09-03 02:33:00,
2013-09-02 20:42:00,87.0,44.0,-100.00,North,349,3.0,9.0,22,0.00,,,0.00,12.000000,,2013-09-03 02:42:00,
2013-09-02 20:52:00,87.0,44.0,-100.00,North,349,3.0,9.0,22,0.00,,,0.00,12.000000,,2013-09-03 02:52:00,
2013-09-02 21:23:00,82.0,41.0,-100.00,SSE,148,3.0,7.0,23,0.00,,,0.00,0.000000,,2013-09-03 03:23:00,
2013-09-02 21:34:00,82.0,41.0,-100.00,SSE,148,3.0,7.0,23,0.00,,,0.00,0.000000,,2013-09-03 03:34:00,
2013-09-02 21:45:00,82.0,41.0,-100.00,SSE,148,3.0,7.0,23,0.00,,,0.00,0.000000,,2013-09-03 03:45:00,
2013-09-02 21:55:00,82.0,41.0,-100.00,SSE,148,3.0,7.0,23,0.00,,,0.00,0.000000,,2013-09-03 03:55:00,
2013-09-02 22:25:00,80.0,46.0,-100.00,West,272,10.0,20.0,30,0.00,,,0.00,0.000000,,2013-09-03 04:25:00,
2013-09-02 22:34:00,80.0,46.0,-100.00,West,272,10.0,20.0,30,0.00,,,0.00,0.000000,,2013-09-03 04:34:00,
2013-09-02 22:44:00,80.0,46.0,-100.00,West,272,10.0,20.0,30,0.00,,,0.00,0.000000,,2013-09-03 04:44:00,
2013-09-02 22:53:00,80.0,46.0,-100.00,West,272,10.0,20.0,30,0.00,,,0.00,0.000000,,2013-09-03 04:53:00,
2013-09-02 23:23:00,77.0,53.0,-100.00,WSW,245,11.0,22.0,43,0.00,,,0.00,0.000000,,2013-09-03 05:23:00,
2013-09-02 23:34:00,77.0,53.0,-100.00,WSW,245,11.0,22.0,43,0.00,,,0.00,0.000000,,2013-09-03 05:34:00,
2013-09-02 23:43:00,77.0,53.0,-100.00,WSW,245,11.0,22.0,43,0.00,,,0.00,0.000000,,2013-09-03 05:43:00,
2013-09-02 23:52:00,77.0,53.0,-100.00,WSW,245,11.0,22.0,43,0.00,,,0.00,0.000000,,2013-09-03 05:52:00,